Station BISM2 - 8571421 - Bishops Head, MD Image indicating link to RSS feed of recent meteorological observations for station BISM2


Conditions at BISM2 as of
(3:30 am EDT)
0730 GMT on 05/21/2024:
     

Click on the graph icon in the table below to see a time series plot of the last five days of that observation.

5-day plot - Wind Direction Wind Direction (WDIR):SSW ( 200 deg true )
5-day plot - Wind Speed Wind Speed (WSPD): 5.1 kts
5-day plot - Wind Gust Wind Gust (GST): 7.0 kts
5-day plot - Atmospheric Pressure Atmospheric Pressure (PRES):30.01 in
5-day plot - Air Temperature Air Temperature (ATMP): 62.2 °F
5-day plot - Water Temperature Water Temperature (WTMP): 69.4 °F
5-day plot - Wind Speed at 10 Meters Wind Speed at 10 meters (WSPD10M): 5.8 kts
5-day plot - Wind Speed at 20 Meters Wind Speed at 20 meters (WSPD20M): 5.8 kts
5-day plot -  Wind Speed, Wind Gust and Atmospheric Pressure Combined plot of Wind Speed, Gust, and Air Pressure
NOS Water Level Observation Network Water Level
Previous observations
TIME
(EDT)
5-day plot - Wind Direction
WDIR
 
5-day plot - Wind Speed
WSPD
kts
5-day plot - Wind Gust
GST
kts
5-day plot - Wave Height
WVHT
ft
5-day plot - Dominant Wave Period
DPD
sec
5-day plot - Average Wave Period
APD
sec
5-day plot - Mean Wave Direction
MWD
 
5-day plot - Atmospheric Pressure
PRES
in
5-day plot - Pressure Tendency
PTDY
in
5-day plot - Air Temperature
ATMP
°F
5-day plot - Water Temperature
WTMP
°F
5-day plot - Dew Point
DEWP
°F
5-day plot - Salinity
SAL
psu
5-day plot - Visibility
VIS
nmi
5-day plot - Tide (above MLLW)
TIDE
ft
2024-05-21 03:24 am S 5.1 7.0----30.01- 62.1 69.4----
2024-05-21 03:18 am S 6.0 7.0----30.01- 62.1 69.4----
2024-05-21 03:12 am S 5.1 7.0----30.01- 62.1 69.4----
2024-05-21 03:06 am S 6.0 7.0----30.01- 62.1 69.4----
2024-05-21 03:00 amSSW 5.1 7.0----30.01-0.01 61.9 69.6----
2024-05-21 02:54 am S 5.1 7.0----30.01- 62.1 69.6----
2024-05-21 02:48 am S 6.0 7.0----30.01- 62.1 69.6----
2024-05-21 02:42 am S 5.1 7.0----30.01- 62.4 69.4----
2024-05-21 02:36 am S 6.0 8.0----30.01- 62.4 69.4----
2024-05-21 02:30 am S 6.0 7.0----30.01- 62.8 69.4----
2024-05-21 02:24 am S 6.0 8.0----30.01- 62.6 69.4----
2024-05-21 02:18 am S 7.0 8.0----30.01- 63.0 69.4----
2024-05-21 02:12 am S 7.0 8.0----30.01- 62.8 69.6----
2024-05-21 02:06 am S 8.0 8.9----30.01- 62.8 69.6----
2024-05-21 02:00 am S 7.0 8.9----30.01-0.02 63.0 69.8----
2024-05-21 01:54 am S 7.0 9.9----30.01- 63.1 69.8----
2024-05-21 01:48 am S 8.0 8.9----30.01- 63.0 69.8----
2024-05-21 01:42 am S 8.0 8.9----30.01- 63.1 70.0----
2024-05-21 01:36 amSSE 7.0 8.9----30.01- 63.1 70.0----
2024-05-21 01:30 amSSE 7.0 8.0----30.01- 63.3 70.0----
2024-05-21 01:24 am S 7.0 8.9----30.02- 63.1 70.0----
2024-05-21 01:18 am S 8.0 9.9----30.02- 63.0 70.0----
2024-05-21 01:12 am S 8.0 9.9----30.02- 63.3 70.0----
2024-05-21 01:06 amSSE 8.9 9.9----30.02- 63.0 70.0----
2024-05-21 01:00 amSSE 8.0 9.9----30.02-0.01 63.3 70.0----
2024-05-21 12:54 amSSE 8.0 11.1----30.02- 63.3 70.2----
2024-05-21 12:48 amSSE 9.9 11.1----30.02- 63.0 70.2----
2024-05-21 12:42 amSSE 9.9 12.0----30.02- 63.0 70.2----
2024-05-21 12:36 amSSE 9.9 12.0----30.02- 63.0 70.0----
2024-05-21 12:30 amSSE 9.9 12.0----30.02- 63.0 70.0----
2024-05-21 12:24 amSSE 11.1 12.0----30.02- 63.3 70.0----
2024-05-21 12:18 amSSE 11.1 12.0----30.03- 63.3 70.0----
2024-05-21 12:12 amSSE 11.1 12.0----30.03- 63.5 70.0----
2024-05-21 12:06 amSSE 11.1 12.0----30.02- 63.3 69.8----
2024-05-21 12:00 amSSE 11.1 12.0----30.03- 63.5 69.6----
2024-05-20 11:54 pmSSE 9.9 11.1----30.03- 63.7 69.4----
2024-05-20 11:48 pmSSE 8.9 11.1----30.03- 63.7 69.3----
2024-05-20 11:42 pmSSE 9.9 11.1----30.03- 63.5 69.1----
2024-05-20 11:36 pmSSE 8.9 9.9----30.03- 63.7 69.1----
2024-05-20 11:30 pmSSE 8.0 9.9----30.03- 63.9 69.3----
2024-05-20 11:24 pmSSE 8.0 9.9----30.04- 64.0 69.3----
2024-05-20 11:18 pmSSE 8.9 9.9----30.04- 63.9 69.4----
2024-05-20 11:12 pmSSE 8.9 9.9----30.04- 64.0 69.4----
2024-05-20 11:06 pmSSE 8.9 9.9----30.04- 64.2 69.3----
2024-05-20 11:00 pmSSE 8.9 9.9----30.04+0.03 64.2 69.1----
2024-05-20 10:54 pmSSE 8.9 9.9----30.04- 64.4 69.3----
2024-05-20 10:48 pmSSE 8.9 9.9----30.04- 64.6 69.4----
2024-05-20 10:42 pmSSE 8.9 8.9----30.04- 64.6 69.4----
2024-05-20 10:36 pmSSE 8.9 9.9----30.04- 64.8 70.0----
2024-05-20 10:30 pmSSE 8.9 9.9----30.04- 64.8 70.2----
2024-05-20 10:24 pmSSE 9.9 11.1----30.04- 65.1 70.5----
2024-05-20 10:18 pmSSE 11.1 11.1----30.04- 65.1 70.7----
2024-05-20 10:12 pmSSE 9.9 11.1----30.04- 65.3 70.9----
2024-05-20 10:06 pmSSE 11.1 12.0----30.03- 65.3 71.1----
2024-05-20 10:00 pmSSE 11.1 12.0----30.03+0.04 65.7 71.2----
2024-05-20 09:54 pmSSE 11.1 12.0----30.03- 65.8 71.2----
2024-05-20 09:48 pmSSE 11.1 12.0----30.03- 66.2 71.4----
2024-05-20 09:42 pm S 11.1 12.0----30.03- 66.4 71.6----
2024-05-20 09:36 pmSSE 11.1 12.0----30.03- 66.6 71.6----
2024-05-20 09:30 pmSSE 9.9 12.0----30.03- 66.9 71.8----
2024-05-20 09:24 pmSSE 11.1 12.0----30.03- 67.1 71.8----
2024-05-20 09:18 pmSSE 11.1 11.1----30.02- 67.1 71.8----
2024-05-20 09:12 pmSSE 11.1 12.0----30.02- 67.3 71.8----
2024-05-20 09:06 pmSSE 9.9 12.0----30.02- 67.5 71.8----
2024-05-20 09:00 pmSSE 11.1 13.0------ 67.6 72.0----
2024-05-20 08:54 pmSSE 12.0 14.0------ 67.8 72.0----
2024-05-20 08:48 pmSSE 12.0 14.0----30.01- 67.8 72.0----
2024-05-20 08:42 pmSSE 12.0 14.0----30.01- 68.0 72.0----
2024-05-20 08:36 pmSSE 13.0 14.0----30.01- 68.0 72.0----
2024-05-20 08:30 pmSSE 11.1 13.0----30.01- 68.4 72.0----
2024-05-20 08:24 pm SE 12.0 13.0----30.01- 68.5 72.1----
2024-05-20 08:18 pm SE 12.0 13.0----30.01- 69.3 72.1----
2024-05-20 08:12 pm SE 11.1 12.0----30.00- 69.8 72.1----
2024-05-20 08:06 pmESE 5.1 7.0----30.01- 70.5 72.1----
2024-05-20 08:00 pmNNW 4.1 7.0----30.01-0.01 70.3 72.1----
2024-05-20 07:54 pm NW 5.1 7.0----30.01- 70.3 72.1----
2024-05-20 07:48 pmWNW 6.0 8.9----30.00- 70.5 72.1----
2024-05-20 07:42 pmWNW 7.0 8.0----30.00- 70.2 72.3----
2024-05-20 07:36 pm W 6.0 7.0----30.00- 70.2 72.3----
2024-05-20 07:30 pm W 6.0 7.0----30.00- 70.0 72.3----
2024-05-20 07:24 pm W 6.0 8.0----30.00- 69.8 72.3----
2024-05-20 07:18 pm W 6.0 7.0----30.00- 69.8 72.3----
2024-05-20 07:12 pm W 5.1 6.0----30.00- 70.0 72.3----
2024-05-20 07:06 pm W 5.1 7.0----30.00- 70.0 72.3----
2024-05-20 07:00 pm W 5.1 7.0----30.00-0.03- 72.5----
2024-05-20 06:54 pm W 5.1 7.0----30.00-- 72.5----
2024-05-20 06:48 pm W 6.0 7.0----30.00-- 72.5----
2024-05-20 06:42 pm W 6.0 7.0----30.00-- 72.5----
2024-05-20 06:36 pm W 5.1 7.0----30.00-- 72.5----
2024-05-20 06:30 pm W 6.0 7.0----30.00- 69.8 72.5----
2024-05-20 06:24 pm W 7.0 8.0----30.00- 69.8 72.3----
2024-05-20 06:18 pm W 7.0 8.9----30.00- 69.8 72.3----
2024-05-20 06:12 pm W 6.0 7.0----30.00- 70.2 72.3----
2024-05-20 06:06 pm W 6.0 7.0----30.01- 70.2 72.3----
2024-05-20 06:00 pm W 5.1 6.0----30.01-0.03 70.3 72.3----
2024-05-20 05:54 pm W 4.1 6.0----30.01- 70.9 72.3----
2024-05-20 05:48 pm W 5.1 5.1----30.01- 71.1 72.5----
2024-05-20 05:42 pmWNW 1.9 4.1----30.01- 73.9 72.5----
2024-05-20 05:36 pmNNE 2.9 5.1----30.01- 73.6 72.5----
2024-05-20 05:30 pmNNE 1.9 4.1----30.02- 73.6 72.5----
2024-05-20 05:24 pmNNE 2.9 5.1----30.02- 73.2 72.5----
2024-05-20 05:18 pm NE 5.1 6.0----30.02- 72.9 72.5----
2024-05-20 05:12 pmNNE 4.1 7.0----30.02- 73.0 72.5----
2024-05-20 05:06 pmNNE 4.1 8.0----30.02- 72.5 72.3----
2024-05-20 05:00 pmNNE 5.1 8.0----30.02-0.03 72.1 72.3----
2024-05-20 04:54 pm NW 5.1 8.0----30.02- 70.5 72.1----
2024-05-20 04:48 pm NW 2.9 7.0----30.02- 70.7 72.0----
2024-05-20 04:42 pmWNW 6.0 8.9----30.02- 70.0 71.8----
2024-05-20 04:36 pm W 8.0 9.9----30.02- 69.6 71.6----
2024-05-20 04:30 pm W 8.9 11.1----30.02-------
2024-05-20 04:24 pmWNW 9.9 12.0----30.02-------
2024-05-20 04:18 pm W 9.9 12.0----30.02- 69.1 71.1----
2024-05-20 04:12 pm W 8.9 11.1----30.02- 68.9 71.1----
2024-05-20 04:06 pm W 8.9 12.0----30.03- 68.7 70.9----
2024-05-20 04:00 pmWNW 8.0 12.0----30.03-0.03 68.7 70.9----
2024-05-20 03:54 pmWNW 11.1 12.0----30.03- 68.4 70.7----
2024-05-20 03:48 pmWNW 12.0 13.0----30.03- 68.4 70.5----
2024-05-20 03:42 pmWNW 12.0 13.0----30.02- 68.0 70.3----
2024-05-20 03:36 pmWNW 8.0 12.0----30.03- 68.2 70.2----
2024-05-20 03:30 pmWNW 12.0 12.0----30.03- 68.0 69.8----
2024-05-20 03:24 pmWNW 11.1 13.0----30.03- 67.8 69.8----
2024-05-20 03:18 pmWNW 11.1 12.0----30.03- 67.8 69.6----
2024-05-20 03:12 pmWNW 11.1 13.0----30.03- 67.6 69.4----
2024-05-20 03:06 pmWNW 11.1 12.0----30.04- 67.3 69.4----
2024-05-20 03:00 pmWNW 9.9 12.0----30.04-0.04 67.1 69.3----
2024-05-20 02:54 pmWNW 9.9 12.0----30.04- 66.9 69.1----
2024-05-20 02:48 pm W 11.1 12.0----30.04- 66.9 69.1----
2024-05-20 02:42 pmWNW 11.1 11.1----30.04- 66.9 68.7----
2024-05-20 02:36 pmWNW 11.1 12.0----30.04- 66.7 68.7----
2024-05-20 02:30 pmWNW 9.9 12.0----30.04- 66.2 68.5----
2024-05-20 02:24 pmWNW 9.9 11.1----30.04- 65.8 68.5----
2024-05-20 02:18 pm W 9.9 11.1----30.04- 65.5 68.5----
2024-05-20 02:12 pmWNW 8.9 8.9----30.04- 65.3 68.5----
2024-05-20 02:06 pm W 8.0 8.9----30.04- 65.1 68.4----
2024-05-20 02:00 pm W 8.0 8.0----30.05-0.03 64.8 68.4----
2024-05-20 01:54 pm W 7.0 8.0----30.05- 64.8 68.4----
2024-05-20 01:48 pm W 7.0 8.9----30.05- 64.4 68.4----
2024-05-20 01:42 pm W 8.0 8.9----30.05- 64.2 68.4----
2024-05-20 01:36 pm W 6.0 8.0----30.05- 64.2 68.2----
2024-05-20 01:30 pm W 7.0 8.0----30.05- 63.9 68.0----
2024-05-20 01:24 pm W 6.0 8.0----30.06- 64.0 67.8----
2024-05-20 01:18 pm W 7.0 8.0----30.06- 64.0 67.8----
2024-05-20 01:12 pm W 7.0 8.0----30.06- 63.9 67.8----
2024-05-20 01:06 pm W 7.0 8.0----30.06- 63.7 67.6----
2024-05-20 01:00 pm W 6.0 7.0----30.06-0.03 63.9 67.6----
2024-05-20 12:54 pm W 6.0 6.0----30.06- 63.7 67.6----
2024-05-20 12:48 pm W 5.1 7.0----30.06- 63.7 67.5----
2024-05-20 12:42 pm W 6.0 6.0----30.06- 63.7 67.5----
2024-05-20 12:36 pm W 5.1 6.0----30.06- 63.5 67.3----
2024-05-20 12:30 pm W 5.1 5.1----30.06- 63.5 66.9----
2024-05-20 12:24 pm W 4.1 5.1----30.07- 63.0 66.7----
2024-05-20 12:18 pm W 4.1 5.1----30.06- 63.0 66.7----
2024-05-20 12:12 pm W 4.1 7.0----30.07- 62.8 66.7----
2024-05-20 12:06 pmWSW 5.1 6.0----30.07- 62.8 66.6----
2024-05-20 12:00 pm W 5.1 6.0----30.07-0.02 62.6 66.4----
2024-05-20 11:54 am W 5.1 7.0----30.07- 62.6 66.2----
2024-05-20 11:48 am W 5.1 5.1----30.07- 63.0 66.2----
2024-05-20 11:42 am W 4.1 7.0----30.08- 64.0 66.2----
2024-05-20 11:36 am N 1.9 4.1----30.08- 65.3 66.0----
2024-05-20 11:30 am N 2.9 4.1----30.08- 64.2 66.0----
2024-05-20 11:24 amNNW 1.9 5.1----30.07- 64.0 66.0----
2024-05-20 11:18 amNNE 1.9 4.1----30.07- 64.0 65.8----
2024-05-20 11:12 amNNW 1.9 7.0----30.07- 62.4 65.8----
2024-05-20 11:06 amNNE 1.9 5.1----30.07- 63.5 65.8----
2024-05-20 11:00 amNNE 4.1 5.1----30.07+0.00 62.8 65.7----
2024-05-20 10:54 amNNE 4.1 5.1----30.08- 62.2 65.7----
2024-05-20 10:48 amNNE 4.1 5.1----30.08- 62.2 65.7----
2024-05-20 10:42 amNNE 1.9 7.0----30.08- 61.7 65.5----
2024-05-20 10:36 amNNE 2.9 7.0----30.09- 61.7 65.5----
2024-05-20 10:30 am N 4.1 5.1----30.09- 61.3 65.5----
2024-05-20 10:24 amNNE 4.1 5.1----30.09- 61.5 65.5----
2024-05-20 10:18 amNNE 2.9 6.0----30.09- 61.5 65.5----
2024-05-20 10:12 am NE 4.1 5.1----30.08- 61.2 65.5----
2024-05-20 10:06 amNNE 4.1 6.0----30.09- 60.4 65.5----
2024-05-20 10:00 amNNE 5.1 7.0----30.09+0.06 60.3 65.5----
2024-05-20 09:54 amNNE 5.1 7.0----30.09- 59.9 65.5----
2024-05-20 09:48 amNNE 2.9 6.0----30.09- 59.9 65.5----
2024-05-20 09:42 amNNE 2.9 5.1----30.09- 59.9 65.5----
2024-05-20 09:36 amNNE 2.9 7.0----30.09- 59.5 65.5----
2024-05-20 09:30 am N 5.1 6.0----30.09- 59.5 65.5----
2024-05-20 09:24 am N 4.1 6.0----30.09- 59.5 65.5----
2024-05-20 09:18 amNNE 5.1 8.0----30.09- 59.0 65.5----
2024-05-20 09:12 am NE 6.0 8.0----30.09- 59.0 65.5----
2024-05-20 09:06 amNNE 5.1 8.0----30.09- 59.2 65.5----
2024-05-20 09:00 amNNE 5.1 7.0----30.09+0.07 59.2 65.5----
2024-05-20 08:54 am NE 4.1 7.0----30.09- 59.0 65.5----
2024-05-20 08:48 am NE 5.1 7.0----30.09- 59.0 65.5----
2024-05-20 08:42 am NE 5.1 7.0----30.08- 58.8 65.5----
2024-05-20 08:36 amENE 4.1 7.0----30.08- 59.0 65.5----
2024-05-20 08:30 am NE 6.0 7.0----30.09- 58.8 65.5----
2024-05-20 08:24 amENE 4.1 8.0----30.08- 59.0 65.5----
2024-05-20 08:18 am NE 7.0 8.9----30.07- 58.8 65.5----
2024-05-20 08:12 am NE 6.0 8.9----30.07- 58.6 65.5----
2024-05-20 08:06 amENE 6.0 8.0----30.07- 58.5 65.5----
2024-05-20 08:00 amENE 6.0 8.0----30.07+0.06 58.3 65.3----
2024-05-20 07:54 amENE 7.0 9.9----30.06- 58.1 65.3----
2024-05-20 07:48 amENE 8.0 9.9----30.06- 58.1 65.3----
2024-05-20 07:42 amENE 8.0 11.1----30.06- 58.3 65.3----
2024-05-20 07:36 amENE 7.0 11.1----30.05- 58.3 65.3----
2024-05-20 07:30 amENE 9.9 12.0----30.05- 58.1 65.3----
2024-05-20 07:24 amENE 8.0 11.1----30.04- 58.1 65.5----
2024-05-20 07:18 amENE 8.9 11.1----30.03- 58.1 65.5----
2024-05-20 07:12 amENE 7.0 8.0----30.03- 58.1 65.5----
2024-05-20 07:06 amENE 6.0 8.0----30.03- 57.9 65.5----
2024-05-20 07:00 amENE 5.1 7.0----30.03+0.02 57.9 65.5----
2024-05-20 06:54 amENE 5.1 7.0----30.03- 57.9 65.5----
2024-05-20 06:48 am NE 5.1 7.0----30.03- 57.9 65.7----
2024-05-20 06:42 amENE 6.0 7.0----30.03- 57.7 65.7----
2024-05-20 06:36 amENE 6.0 7.0----30.03- 57.7 65.7----
2024-05-20 06:30 amENE 5.1 7.0----30.03- 57.6 65.7----
2024-05-20 06:24 amENE 5.1 8.0----30.03- 57.9 65.8----
2024-05-20 06:18 am E 7.0 9.9----30.02- 57.7 65.8----
2024-05-20 06:12 am E 7.0 8.0----30.02- 57.7 65.8----
2024-05-20 06:06 amENE 6.0 8.9----30.02- 57.4 65.8----
2024-05-20 06:00 amENE 6.0 8.0----30.02+0.01 57.7 66.0----
2024-05-20 05:54 amENE 6.0 7.0----30.02- 57.6 66.0----
2024-05-20 05:48 amENE 5.1 8.0----30.02- 57.6 66.0----
2024-05-20 05:42 amENE 7.0 8.0----30.02- 57.4 66.2----
2024-05-20 05:36 amENE 7.0 8.0----30.01- 57.2 66.2----
2024-05-20 05:30 amENE 6.0 8.0----30.01- 57.4 66.4----
2024-05-20 05:24 am E 5.1 8.0----30.01- 57.6 66.4----
2024-05-20 05:18 amENE 5.1 8.0----30.01- 57.6 66.4----
2024-05-20 05:12 amENE 7.0 8.9----30.01- 57.6 66.4----
2024-05-20 05:06 amENE 8.0 9.9----30.01- 57.2 66.4----
2024-05-20 05:00 am NE 6.0 8.0----30.01-0.01 57.2 66.6----
2024-05-20 04:54 amENE 7.0 8.0----30.01- 57.0 66.6----
2024-05-20 04:48 amENE 6.0 8.0----30.01- 57.0 66.6----
2024-05-20 04:42 amENE 6.0 8.0----30.01- 57.0 66.6----
2024-05-20 04:36 amENE 7.0 8.0----30.01- 57.0 66.6----
2024-05-20 04:30 amENE 5.1 8.0----30.00- 57.0 66.6----
2024-05-20 04:24 amENE 6.0 8.0----30.00- 57.0 66.7----
2024-05-20 04:18 amENE 6.0 8.9----30.00- 57.0 66.6----
2024-05-20 04:12 am NE 6.0 8.0----30.01- 57.2 66.6----
2024-05-20 04:06 amENE 6.0 8.9----30.01- 57.2 66.6----
2024-05-20 04:00 am NE 7.0 8.0----30.01-0.02 57.4 66.7----
2024-05-20 03:54 amENE 6.0 8.0----30.01- 57.2 66.7----